Location: Grasslands National Park East Block
(49.0708°N, 106.5295°W)
Time: 02:30:29
(UTC-06:00)

Vanguard 1 Rocket - Pass Details

Date: 26 September 2019
Orbit: 650 x 4226 km, 34.3° (Epoch: 19 October)

Event Time Altitude Azimuth Distance (km) Brightness Sun altitude
Rises 13:35:24 0° 178° (S) 8,100 13.1 38.9°
Reaches altitude 10° 13:45:10 10° 159° (SSE) 7,381 12.8 38.5°
Maximum altitude 13:57:03 15° 131° (SE) 6,863 12.3 37.9°
Drops below altitude 10° 14:08:07 10° 103° (ESE) 6,923 11.9 37.3°
Sets 14:16:20 0° 85° (E) 7,384 11.8 36.8°
